Regional Weather Roundup
Issued by NWS

Home | Current Version | Previous Version | Graphics & Text | Print | Product List | Glossary On
Versions: 1 2 3 4 5 6 7 8 9 10 11 12 13 14 15 16 17 18 19 20 21 22 23 24 25 26 27 28 29 30 31 32 33 34 35 36 37 38 39 40 41 42 43 44 45 46 47 48 49 50
280
ASUS43 KIND 291259
RWRIN

WEATHER ROUNDUP FOR INDIANA
NATIONAL WEATHER SERVICE INDIANAPOLIS IN
900 AM EDT MON AUG 29 2016

NOTE: "FAIR" INDICATES FEW OR NO CLOUDS BELOW 12,000 FEET WITH NO
SIGNIFICANT WEATHER AND/OR OBSTRUCTIONS TO VISIBILITY.

* - STATION DOES NOT REPORT WEATHER SUCH AS PRECIPITATION OR FOG.

+ - STATION NOT QUALITY CONTROLLED BY THE NATIONAL WEATHER SERVICE.
    USE DATA WITH CAUTION...ESPECIALLY DEWPOINT AND RELATIVE
    HUMIDITY OBSERVATIONS.

INZ001>003-010>013-019-020-291400-
NORTHWEST INDIANA

CITY           SKY/WX    TMP DP  RH WIND       PRES   REMARKS
GARY /AIRPORT/ MOSUNNY   75  73  94 NE8       30.24
KNOX *+        MOSUNNY   68  61  77 E3        30.24R
MONTICELLO +   SUNNY     72  65  81 E3        30.23R
RENSSELAER +   SUNNY     72  70  94 CALM      30.24R

$$

LMZ046-743>745-291400-
SOUTHERN LAKE MICHIGAN

STATION/POSITION TIME  TEMP    WIND        PRES    WAVE
                       AIR SEA DIR/SP/G            HT
                 (UTC) (F)     (DEG/KT/KT) (MB)    (FT)
BURNS HARBOR     1206   71      80/  7/ 10 1024.0R
MICHIGAN CITY    1200   70      60/  7/  8   N/A
5NW MICH CITY    1200   74 76   70/ 10/ 12   N/A     1

$$

INZ004-005-014>016-021>024-291400-
NORTH CENTRAL INDIANA

CITY           SKY/WX    TMP DP  RH WIND       PRES   REMARKS
ELKHART        SUNNY    N/A N/A N/A E7        30.25R
GOSHEN         SUNNY     73  68  84 E6        30.26R
SOUTH BEND     SUNNY     72  69  90 E7        30.26R

$$

INZ006>009-017-018-025>027-291400-
NORTHEAST INDIANA

CITY           SKY/WX    TMP DP  RH WIND       PRES   REMARKS
ANGOLA *+      SUNNY     72  63  73 E8        30.27R
FORT WAYNE     PTSUNNY   71  68  90 NE9       30.26R

$$

INZ028-029-035-036-043>045-051>053-291400-
WEST CENTRAL INDIANA

CITY           SKY/WX    TMP DP  RH WIND       PRES   REMARKS
CRAWFORDSVL +  SUNNY     71  71 100 SE3       30.24R
GREENCASTLE +  SUNNY     70  70 100 E5        30.25R FOG
LAFAYETTE      MOSUNNY   72  70  93 E5        30.24R
TERRE HAUTE    SUNNY     74  70  87 SE6       30.23R

$$

INZ030>032-037>040-046>048-054>057-064-065-291400-
CENTRAL INDIANA

CITY           SKY/WX    TMP DP  RH WIND       PRES   REMARKS
ANDERSON       SUNNY     72  72 100 CALM      30.24
COLUMBUS       SUNNY     70  70 100 CALM      30.24R
INDIANAPOLIS   MOSUNNY   74  68  81 E3        30.24R
-EAGLE CREEK   SUNNY     74  68  81 E5        30.24R
KOKOMO *+      CLOUDY    70  68  94 CALM      30.24R
MT COMFORT *+  SUNNY     72  68  88 CALM      30.25R
SHELBYVILLE    SUNNY     73  68  84 E3        30.24R

$$

INZ033-034-041-042-049-050-058-059-291400-
EAST CENTRAL INDIANA

CITY           SKY/WX    TMP DP  RH WIND       PRES   REMARKS
MUNCIE         MOSUNNY   73  69  87 E5        30.25R

$$

INZ060-061-067>069-081>083-085>088-291400-
SOUTHWEST INDIANA

CITY           SKY/WX    TMP DP  RH WIND       PRES   REMARKS
EVANSVILLE     SUNNY     75  70  84 NE5       30.20R
HUNTINGBURG *+ SUNNY     73  68  83 CALM      30.21R

$$

INZ062-063-066-070>080-084-089>092-291400-
SOUTH CENTRAL AND SOUTHEAST INDIANA

CITY           SKY/WX    TMP DP  RH WIND       PRES   REMARKS
BLOOMINGTON    PTSUNNY   74  67  78 E5        30.23R
MADISON *+     SUNNY     70  68  94 CALM      30.25R

$$





USA.gov is the U.S. government's official web portal to all federal, state and local government web resources and services.